Weather Roundup
Issued by NWS

Home | Current Version | Previous Version | Graphics & Text | Print | Product List | Glossary Off
Versions: 1 2 3 4 5 6 7 8 9 10 11 12 13 14 15 16 17 18 19 20 21 22 23 24 25 26 27 28 29 30 31 32 33 34 35 36 37 38 39 40 41 42 43 44 45 46 47 48 49 50

484
NZUS93 KARX 241159
HRRWXR

CURRENT HOURLY OBSERVATIONS ACROSS
MUCH OF THE UPPER MISSISSIPPI VALLEY
NATIONAL WEATHER SERVICE LA CROSSE WI
700 AM CDT MON APR 24 2017


...SOUTHEAST MINNESOTA...


CITY           SKY/WX    TMP DP  RH WIND       PRES   REMARKS
ROCHESTER      CLOUDY    46  36  68 SE13      29.87R
ROCHESTER/MAYO FAIR      49  34  55 SE8       29.87S
WINONA         PTCLDY    46  41  81 SE7       29.92S
AUSTIN         MOCLDY    48  34  57 SE3       29.86S
ALBERT LEA     CLOUDY    48  32  53 S8        29.84R
DODGE CENTER   CLOUDY    48  36  61 S14       29.85S
PRESTON        MOCLDY    47  33  57 S8        29.89S
OWATONNA       CLOUDY    52  34  50 S10       29.83R
FARIBAULT      CLOUDY    52  36  54 S7        29.83R
$$

...ELSEWHERE IN MINNESOTA...


CITY           SKY/WX    TMP DP  RH WIND       PRES   REMARKS
MINNEAPOLIS    CLOUDY    55  33  43 S9        29.81S
INTNL FALLS    MIX PCPN  31  27  85 E15G23    29.91S WCI  20
DULUTH         MOCLDY    32  26  78 E21G29    29.89S WCI  20
RED WING       MOCLDY    54  34  47 SE8       29.84S
REDWOOD FALLS  CLOUDY    51  35  54 S14       29.71F
MANKATO        CLOUDY    51  34  52 S8        29.80S
WORTHINGTON    MOCLDY    50  36  58 S18       29.73F
FAIRMONT       CLOUDY    48  35  60 S15       29.79F
$$

...SOUTHWEST WISCONSIN...


CITY           SKY/WX    TMP DP  RH WIND       PRES   REMARKS
LA CROSSE      CLEAR     46  39  76 E8        29.92S
PRAIRIE DU CHI CLEAR     44  39  83 E5        29.94R
BOSCOBEL       CLEAR     45  40  82 NE5       29.96S
LONE ROCK      NOT AVBL
PLATTEVILLE    CLEAR     43  35  72 SE8       29.97S
FORT MC COY    CLEAR     38  36  91 E3        29.96S
MAUSTON-NEW LI CLOUDY    37  33  87 SE8       29.98S WCI  31
VIROQUA        FAIR      40  39  94 E10       29.94S WCI  34
WIS DELLS      CLEAR     36  33  89 E5        29.99S WCI  32
$$

...ELSEWHERE IN WISCONSIN...


CITY           SKY/WX    TMP DP  RH WIND       PRES   REMARKS
MILWAUKEE      MOSUNNY   41  37  86 CALM      30.03S
MADISON        PTCLDY    37  34  89 VRB5      30.01R WCI  33
GREEN BAY      MOSUNNY   38  34  85 NE5       30.03S WCI  34
EAU CLAIRE     PTCLDY    40  34  79 SE8       29.90S WCI  34
BLACK RVR FLS  FAIR      34  34  99 CALM      29.95F
MEDFORD        CLEAR     32  28  85 SE6       29.95R WCI  26
WAUSAU         PTCLDY    33  27  78 SE9       29.99R WCI  25
WIS RAPIDS     CLOUDY    36  30  79 E6        30.00R WCI  31
MARSHFIELD     CLEAR     34  29  82 SE13      29.96R WCI  25
RICE LAKE      CLOUDY    39  35  84 SE10      29.91S WCI  32
$$

...NORTHEAST IOWA...


CITY           SKY/WX    TMP DP  RH WIND       PRES   REMARKS
WATERLOO       PTCLDY    49  33  54 SE7       29.89S
DUBUQUE        CLOUDY    49  32  52 SE12      29.96S
DECORAH        PTCLDY    50  32  50 SE8       29.90S
MASON CITY     CLOUDY    43  36  76 S5        29.87R
CHARLES CITY   CLOUDY    48  32  53 SE9       29.89R
OELWEIN        NOT AVBL
$$

...ELSEWHERE IN IOWA...


CITY           SKY/WX    TMP DP  RH WIND       PRES   REMARKS
DES MOINES     CLOUDY    50  34  54 SE9       29.88S
IOWA CITY      CLOUDY    42  35  76 CALM      29.97R
FORT DODGE     CLOUDY    52  32  46 S8        29.84R
MARSHALLTOWN   CLOUDY    51  33  50 S10       29.89R
CEDAR RAPIDS   CLOUDY    45  34  65 SE8       29.94R
$$

...NORTHERN ILLINOIS...


CITY           SKY/WX    TMP DP  RH WIND       PRES   REMARKS
CHICAGO-OHARE  MOSUNNY   42  38  85 N5        30.02S
CHICAGO-MIDWAY MOSUNNY   45  40  82 CALM      30.03R
MOLINE         CLOUDY    40  35  83 E6        29.97S
ROCKFORD       PTCLDY    43  37  79 CALM      30.03R
PEORIA         CLEAR     47  31  53 E5        30.00R
$$

NOTE: "FAIR" INDICATES FEW OR NO CLOUDS BELOW 12,000 FEET WITH NO
SIGNIFICANT WEATHER AND/OR OBSTRUCTIONS TO VISIBILITY. WIND
SPEEDS ARE IN MILES-PER-HOUR.




USA.gov is the U.S. government's official web portal to all federal, state and local government web resources and services.